Precipitable_Water
0.33 0.37 0.39 0.42 0.44 0.47 0.45 0.48 0.44 0.41 0.39 0.38 0.39 0.38 0.39 0.43 0.47 0.50 0.51 0.49 0.48 0.46 0.46 0.45 0.46 0.48 0.47 0.49 0.53 0.55 0.53 0.50 0.51 0.49 0.45 0.51 0.64 0.70 0.79 0.82 0.83 0.89 0.91
0.33 0.37 0.41 0.43 0.44 0.45 0.47 0.46 0.41 0.39 0.43 0.43 0.44 0.45 0.46 0.48 0.52 0.51 0.48 0.47 0.48 0.48 0.48 0.48 0.49 0.51 0.51 0.52 0.54 0.56 0.54 0.54 0.57 0.50 0.49 0.40 0.56 0.70 0.67 0.72 0.77 0.76 0.76
0.31 0.36 0.40 0.42 0.45 0.45 0.46 0.42 0.37 0.40 0.41 0.43 0.46 0.44 0.46 0.45 0.41 0.42 0.43 0.46 0.48 0.49 0.49 0.50 0.50 0.51 0.55 0.54 0.57 0.61 0.60 0.55 0.56 0.58 0.56 0.44 0.40 0.47 0.64 0.63 0.68 0.64 0.65
0.36 0.38 0.41 0.42 0.45 0.46 0.44 0.38 0.39 0.39 0.41 0.42 0.38 0.38 0.37 0.34 0.39 0.42 0.45 0.46 0.48 0.48 0.49 0.48 0.48 0.50 0.52 0.53 0.57 0.62 0.61 0.62 0.54 0.56 0.59 0.62 0.59 0.47 0.42 0.56 0.59 0.57 0.50
0.37 0.39 0.41 0.44 0.46 0.42 0.37 0.39 0.39 0.39 0.40 0.40 0.40 0.39 0.36 0.38 0.41 0.43 0.42 0.43 0.46 0.47 0.47 0.46 0.47 0.47 0.49 0.53 0.54 0.55 0.55 0.56 0.54 0.54 0.52 0.51 0.53 0.55 0.52 0.43 0.46 0.52 0.50
0.37 0.39 0.40 0.42 0.38 0.38 0.38 0.38 0.37 0.38 0.40 0.41 0.41 0.38 0.36 0.38 0.38 0.40 0.41 0.44 0.45 0.46 0.46 0.47 0.47 0.48 0.49 0.51 0.53 0.54 0.53 0.51 0.52 0.53 0.52 0.50 0.47 0.45 0.47 0.44 0.45 0.45 0.48
0.35 0.35 0.34 0.34 0.33 0.34 0.36 0.37 0.38 0.39 0.41 0.41 0.39 0.39 0.39 0.40 0.41 0.42 0.44 0.45 0.45 0.45 0.45 0.46 0.46 0.47 0.48 0.51 0.53 0.51 0.50 0.50 0.50 0.51 0.50 0.52 0.51 0.52 0.49 0.46 0.43 0.42 0.45
0.34 0.33 0.33 0.32 0.34 0.36 0.37 0.37 0.39 0.39 0.39 0.39 0.39 0.41 0.42 0.43 0.45 0.47 0.48 0.47 0.47 0.48 0.50 0.48 0.47 0.47 0.48 0.48 0.48 0.48 0.49 0.50 0.49 0.49 0.50 0.50 0.51 0.52 0.51 0.47 0.43 0.37 0.40
0.32 0.30 0.31 0.32 0.34 0.36 0.37 0.38 0.39 0.39 0.39 0.39 0.41 0.43 0.46 0.48 0.50 0.54 0.57 0.56 0.57 0.56 0.55 0.54 0.51 0.49 0.48 0.46 0.45 0.43 0.42 0.43 0.44 0.44 0.46 0.47 0.49 0.51 0.51 0.50 0.48 0.41 0.33
0.30 0.31 0.33 0.36 0.39 0.40 0.41 0.43 0.44 0.42 0.43 0.46 0.50 0.53 0.57 0.58 0.59 0.60 0.59 0.59 0.59 0.57 0.55 0.52 0.49 0.47 0.46 0.45 0.43 0.40 0.40 0.39 0.40 0.41 0.41 0.42 0.44 0.46 0.49 0.48 0.47 0.45 0.40
0.30 0.32 0.36 0.41 0.46 0.51 0.52 0.54 0.54 0.53 0.53 0.56 0.57 0.57 0.57 0.58 0.58 0.58 0.59 0.57 0.55 0.52 0.48 0.45 0.44 0.42 0.40 0.40 0.39 0.39 0.39 0.39 0.39 0.40 0.39 0.38 0.40 0.40 0.42 0.44 0.44 0.42 0.41
0.33 0.41 0.51 0.57 0.57 0.58 0.59 0.59 0.58 0.57 0.57 0.58 0.57 0.57 0.57 0.57 0.57 0.56 0.56 0.52 0.48 0.46 0.44 0.42 0.40 0.39 0.38 0.37 0.36 0.35 0.38 0.35 0.37 0.38 0.39 0.37 0.38 0.38 0.39 0.40 0.40 0.40 0.41
0.44 0.51 0.55 0.56 0.55 0.55 0.55 0.56 0.57 0.57 0.57 0.57 0.56 0.55 0.55 0.56 0.56 0.55 0.52 0.48 0.46 0.45 0.43 0.41 0.39 0.37 0.36 0.36 0.34 0.33 0.32 0.30 0.32 0.36 0.36 0.35 0.34 0.32 0.33 0.35 0.35 0.36 0.38
0.47 0.48 0.49 0.50 0.52 0.53 0.54 0.55 0.56 0.58 0.57 0.56 0.54 0.53 0.53 0.54 0.55 0.54 0.51 0.49 0.49 0.46 0.44 0.42 0.40 0.38 0.36 0.34 0.33 0.31 0.30 0.28 0.27 0.28 0.30 0.33 0.32 0.30 0.29 0.29 0.29 0.30 0.30
0.49 0.49 0.49 0.50 0.51 0.51 0.53 0.55 0.56 0.57 0.57 0.55 0.54 0.54 0.54 0.55 0.55 0.53 0.52 0.52 0.51 0.49 0.46 0.42 0.40 0.38 0.35 0.33 0.31 0.30 0.28 0.27 0.25 0.24 0.24 0.25 0.29 0.29 0.30 0.29 0.27 0.27 0.26
0.48 0.50 0.51 0.52 0.52 0.54 0.55 0.57 0.57 0.57 0.57 0.56 0.55 0.56 0.55 0.54 0.54 0.54 0.53 0.53 0.52 0.49 0.45 0.41 0.37 0.34 0.32 0.31 0.30 0.30 0.27 0.26 0.25 0.23 0.24 0.24 0.26 0.27 0.28 0.29 0.30 0.30 0.25
0.48 0.49 0.50 0.54 0.56 0.57 0.58 0.57 0.58 0.60 0.59 0.58 0.58 0.58 0.57 0.55 0.55 0.54 0.55 0.52 0.49 0.46 0.42 0.38 0.34 0.31 0.29 0.29 0.29 0.29 0.28 0.27 0.26 0.25 0.24 0.23 0.24 0.25 0.26 0.26 0.26 0.27 0.28
0.51 0.50 0.49 0.49 0.51 0.55 0.59 0.61 0.62 0.61 0.59 0.58 0.58 0.58 0.57 0.54 0.55 0.56 0.51 0.49 0.45 0.39 0.37 0.35 0.33 0.31 0.29 0.28 0.27 0.27 0.26 0.25 0.24 0.24 0.23 0.22 0.20 0.20 0.21 0.21 0.22 0.21 0.22
0.53 0.54 0.54 0.51 0.49 0.47 0.47 0.46 0.47 0.49 0.50 0.50 0.50 0.51 0.50 0.49 0.47 0.45 0.44 0.41 0.37 0.35 0.33 0.31 0.28 0.26 0.24 0.23 0.23 0.24 0.23 0.23 0.22 0.21 0.21 0.20 0.19 0.18 0.20 0.21 0.20 0.20 0.20
0.51 0.49 0.49 0.47 0.43 0.41 0.41 0.39 0.37 0.37 0.36 0.37 0.37 0.39 0.39 0.39 0.38 0.36 0.31 0.30 0.29 0.28 0.28 0.26 0.25 0.24 0.23 0.23 0.23 0.23 0.22 0.21 0.20 0.21 0.20 0.20 0.20 0.21 0.21 0.21 0.21 0.19 0.18
0.43 0.40 0.37 0.33 0.32 0.32 0.29 0.26 0.25 0.24 0.26 0.28 0.27 0.26 0.28 0.29 0.28 0.28 0.28 0.27 0.26 0.26 0.25 0.24 0.23 0.22 0.21 0.20 0.20 0.20 0.20 0.20 0.19 0.19 0.18 0.19 0.20 0.20 0.22 0.23 0.23 0.21 0.24
0.29 0.27 0.25 0.23 0.22 0.22 0.22 0.20 0.19 0.19 0.20 0.21 0.20 0.19 0.20 0.20 0.21 0.22 0.21 0.21 0.22 0.21 0.21 0.20 0.19 0.20 0.19 0.19 0.19 0.19 0.19 0.20 0.20 0.19 0.20 0.20 0.20 0.20 0.22 0.23 0.24 0.26 0.30
0.20 0.19 0.18 0.18 0.18 0.18 0.16 0.14 0.14 0.15 0.15 0.17 0.17 0.17 0.19 0.21 0.24 0.23 0.20 0.19 0.19 0.19 0.19 0.19 0.18 0.17 0.18 0.18 0.19 0.20 0.21 0.21 0.20 0.20 0.21 0.23 0.24 0.24 0.24 0.23 0.23 0.25 0.25
0.16 0.16 0.15 0.15 0.16 0.18 0.18 0.17 0.16 0.16 0.15 0.15 0.16 0.17 0.17 0.18 0.18 0.18 0.19 0.19 0.19 0.19 0.19 0.18 0.16 0.16 0.16 0.16 0.17 0.17 0.17 0.18 0.19 0.20 0.21 0.23 0.23 0.25 0.25 0.26 0.25 0.25 0.26
0.15 0.16 0.16 0.17 0.20 0.21 0.19 0.17 0.16 0.17 0.16 0.16 0.16 0.16 0.16 0.16 0.16 0.17 0.17 0.19 0.20 0.20 0.19 0.18 0.19 0.18 0.17 0.17 0.20 0.21 0.21 0.23 0.24 0.27 0.26 0.24 0.23 0.22 0.22 0.22 0.23 0.23 0.23
0.15 0.16 0.17 0.19 0.20 0.19 0.17 0.16 0.16 0.16 0.16 0.16 0.16 0.17 0.18 0.19 0.19 0.19 0.18 0.21 0.22 0.22 0.22 0.22 0.23 0.23 0.24 0.24 0.24 0.25 0.27 0.28 0.30 0.29 0.26 0.24 0.23 0.22 0.22 0.23 0.23 0.23 0.23
Wind_Speed
15 15 15 15 16 17 18 18 18 19 19 18 19 19 19 18 18 17 18 17 18 19 19 20 20 21 21 21 21 21 21 20 20 18 17 13 13 12 13 13 14 15 17
15 15 16 16 17 17 17 18 18 18 18 18 18 17 18 18 18 18 18 18 19 20 20 21 21 22 22 23 23 22 21 20 19 17 14 13 13 14 15 14 14 15 17
15 16 16 17 17 17 17 17 17 17 17 17 17 17 17 17 17 17 18 19 19 20 21 21 22 23 23 23 22 21 20 19 18 16 13 12 12 15 13 16 16 16 18
16 16 16 17 17 17 17 16 16 16 16 17 17 16 16 16 17 17 18 19 20 21 21 22 22 22 22 22 21 19 18 17 16 15 13 13 14 14 15 15 17 17 19
15 16 16 16 17 16 16 16 16 16 16 16 16 17 17 17 18 18 19 20 21 21 22 22 22 21 20 19 18 18 17 16 15 14 14 14 15 15 15 17 18 19 19
15 16 16 16 16 16 16 16 16 16 16 16 17 17 17 18 19 20 21 21 22 21 22 22 21 20 19 18 18 17 16 15 15 14 14 14 15 16 16 18 19 19 19
16 16 16 17 16 17 17 16 16 17 17 18 18 18 19 19 21 22 23 23 22 22 22 21 20 19 19 18 18 17 16 16 15 15 16 16 17 18 18 19 19 19 20
16 16 17 17 18 18 18 18 17 18 18 19 19 20 21 22 23 23 23 23 23 22 22 22 21 20 20 20 19 18 18 17 17 17 17 18 19 19 19 20 19 20 19
17 18 18 18 19 18 19 19 19 20 21 22 23 23 23 24 24 24 24 24 23 23 23 23 23 22 22 22 21 21 20 20 19 19 20 20 20 21 21 21 21 21 20
18 19 20 20 20 21 22 22 23 24 24 25 25 25 24 24 24 24 24 24 24 24 25 25 25 25 25 24 24 23 23 23 22 22 22 22 23 23 23 24 24 24 23
20 20 21 23 24 24 24 25 25 25 25 25 25 25 25 26 26 26 26 26 26 26 27 27 27 27 27 27 26 26 26 26 26 26 26 26 26 26 26 26 26 26 26
24 25 25 24 23 23 24 25 26 27 27 27 28 28 29 29 29 29 29 29 29 30 30 30 30 30 30 30 30 30 29 30 30 30 30 30 29 29 29 29 29 29 29
22 22 25 25 25 25 26 27 28 29 29 30 31 31 31 31 31 32 32 32 33 33 34 34 34 34 34 34 34 34 33 33 33 33 33 33 33 32 32 31 31 31 32
25 26 26 27 29 29 29 29 30 30 31 32 33 33 34 34 35 35 35 36 37 37 38 38 38 38 38 38 38 38 37 37 37 36 36 36 35 35 35 35 34 34 34
24 25 27 28 28 30 31 31 32 32 33 33 34 35 36 37 38 39 40 40 41 41 42 42 42 42 41 41 41 41 41 40 40 39 39 38 38 38 38 37 37 37 36
25 26 27 28 29 30 31 32 32 32 33 34 36 38 39 40 41 42 43 44 45 45 45 45 44 44 43 44 44 44 44 43 43 43 42 42 41 41 41 41 40 40 39
27 28 29 29 29 30 31 31 33 35 37 38 39 41 43 44 45 46 47 47 48 48 48 47 47 47 47 47 47 47 47 46 46 45 45 45 44 44 44 44 43 42 42
30 31 32 33 33 34 35 35 36 38 40 43 44 46 47 47 48 49 49 50 50 50 50 49 49 49 49 49 49 49 48 48 48 47 47 46 46 45 45 45 45 44 43
33 34 35 35 36 37 38 40 41 43 44 45 46 47 48 49 49 50 51 51 51 51 51 51 51 51 51 50 50 50 49 49 49 48 47 47 47 46 47 47 47 46 45
36 36 37 38 39 40 42 42 44 45 45 47 48 48 49 49 50 51 51 52 52 53 52 52 52 52 51 50 50 49 49 49 49 48 48 48 48 48 48 48 48 47 47
37 38 40 41 42 43 45 45 46 47 49 49 50 50 50 51 51 52 52 53 53 53 53 53 52 51 50 49 49 48 47 47 48 48 47 47 48 48 48 48 48 49 48
39 40 41 43 44 46 47 49 49 51 51 51 52 52 52 53 53 53 54 53 53 53 52 51 51 49 49 48 48 47 47 47 48 49 49 49 49 49 49 49 49 49 49
40 42 44 46 47 48 50 51 52 52 53 53 53 53 53 53 53 52 52 51 51 50 50 49 49 49 48 47 47 47 47 48 48 49 49 50 49 49 49 49 49 49 49
44 45 47 48 50 50 52 52 53 53 53 53 53 52 52 51 50 50 49 48 47 47 46 46 46 46 46 46 45 46 46 47 46 46 46 47 47 47 47 46 46 46 46
46 47 49 50 52 53 54 53 52 52 52 51 51 50 48 48 48 47 46 45 45 45 45 45 45 44 44 44 44 44 43 43 43 43 43 43 42 42 42 42 42 41 41
48 49 50 51 53 54 53 52 51 50 49 48 47 46 46 46 45 45 44 43 44 44 43 44 44 44 44 44 44 43 43 42 41 41 40 40 40 40 40 39 39 38 39
Wind_Direction
276 280 281 283 285 289 293 297 300 304 307 310 312 314 316 316 317 317 317 316 313 313 312 311 310 311 310 309 309 308 308 308 309 303 298 284 263 267 274 283 292 295 303
276 278 281 283 286 288 292 296 300 303 306 308 310 312 313 315 316 315 315 315 315 314 313 312 311 310 309 308 308 307 305 304 307 302 293 283 270 268 276 284 293 298 305
272 278 280 282 284 289 292 295 297 301 304 307 308 311 313 316 318 319 317 317 316 315 314 313 312 311 310 309 308 307 306 303 302 301 289 282 271 283 272 283 288 299 303
276 278 280 282 284 287 290 292 295 299 301 304 307 310 312 314 317 318 318 317 318 317 316 316 315 313 312 312 310 308 306 304 301 299 289 283 278 279 281 280 289 298 303
276 278 279 282 284 285 287 290 293 296 299 302 305 307 309 310 313 316 317 317 317 317 317 318 317 317 316 315 314 312 309 305 302 297 291 286 282 280 281 286 291 296 301
278 280 281 282 283 284 285 287 289 293 296 299 302 304 306 307 310 313 315 315 315 315 317 318 319 318 317 317 316 314 310 306 303 299 294 287 284 284 284 287 291 294 297
277 279 280 280 281 281 283 284 286 289 293 296 299 300 303 305 307 309 311 313 313 314 315 317 319 318 317 316 316 315 312 308 304 300 295 291 288 287 287 287 290 292 295
279 279 280 280 280 279 279 281 283 287 290 293 296 298 300 302 304 307 308 309 310 311 312 314 315 316 316 315 314 312 311 308 304 300 296 293 290 288 287 287 289 291 290
280 281 281 280 280 279 278 280 282 285 288 291 293 295 297 300 303 305 306 306 307 308 309 310 310 311 311 310 309 308 306 304 302 298 296 293 291 289 288 287 286 286 288
282 283 283 281 280 280 280 280 282 284 287 288 290 293 295 298 301 303 304 305 306 306 307 307 307 306 305 305 304 303 301 300 298 296 295 293 291 289 287 286 285 284 283
283 284 284 283 282 280 279 281 281 283 285 286 288 290 293 296 298 300 301 302 302 303 304 304 304 303 302 300 299 298 296 295 294 293 292 291 290 289 287 286 284 284 282
289 285 285 284 283 281 280 282 283 283 284 284 286 288 290 293 295 296 297 299 300 300 301 301 301 300 299 298 296 295 293 292 291 290 289 288 288 287 286 285 284 283 282
301 298 291 284 283 281 281 283 284 283 283 283 285 287 288 290 291 293 294 296 297 297 298 298 297 297 295 294 293 291 290 290 289 287 286 285 285 284 284 283 283 282 282
298 298 296 294 285 282 281 282 283 284 283 283 284 286 287 288 289 290 291 293 294 295 295 295 295 294 293 292 291 289 288 287 286 286 284 283 282 282 281 281 281 281 280
299 301 299 298 294 288 284 283 284 284 285 283 284 285 286 288 289 289 290 292 292 293 293 293 293 292 291 290 289 287 287 286 285 284 283 282 281 280 280 279 279 279 279
299 300 301 301 298 295 289 287 286 286 286 286 286 286 287 287 288 288 289 290 291 291 291 291 290 290 290 289 288 286 285 284 283 282 282 281 280 280 279 278 278 277 277
297 299 299 299 299 298 295 291 288 288 287 287 287 287 287 287 288 288 288 289 289 289 289 289 288 288 288 287 286 285 283 282 281 281 280 280 279 279 278 277 277 276 276
295 296 297 297 297 296 295 293 293 292 291 290 289 288 287 287 287 287 288 288 288 288 287 286 287 287 286 286 285 284 283 281 280 279 279 279 278 277 277 276 275 275 275
295 295 296 296 296 296 296 295 293 293 292 292 291 290 289 288 288 287 288 288 287 287 286 286 286 285 285 285 283 283 281 280 279 278 278 277 277 277 276 274 274 274 274
294 294 295 296 297 297 297 296 295 294 293 293 292 291 290 289 289 288 288 288 287 287 286 286 285 285 284 284 283 282 281 279 279 278 277 277 277 277 276 274 273 272 273
295 296 296 296 297 297 297 296 295 294 294 293 292 292 291 289 289 288 289 288 288 287 286 285 285 284 284 283 282 281 280 279 279 278 277 277 277 276 276 275 273 273 273
295 296 296 297 298 298 297 296 295 295 295 294 292 291 291 290 289 288 289 288 288 287 286 285 284 283 283 282 282 281 280 280 279 278 277 277 276 276 275 275 274 273 272
295 296 296 297 298 299 299 297 297 296 295 294 293 292 291 290 289 289 289 288 287 286 285 284 284 283 282 282 281 281 281 280 280 279 278 277 276 275 275 274 274 274 272
295 296 297 298 299 300 300 299 298 297 296 295 294 293 292 291 290 289 289 287 287 287 287 286 285 284 283 283 283 282 282 281 280 280 278 278 277 276 276 275 274 273 272
296 296 298 299 300 300 300 300 299 298 296 295 295 294 294 293 292 291 289 288 287 287 287 286 286 285 284 283 283 283 282 281 281 281 279 279 278 277 277 276 274 273 272
297 298 299 300 300 300 301 300 300 298 297 296 296 295 295 294 294 293 291 289 288 288 287 287 286 285 285 284 283 282 282 281 281 280 279 279 278 277 277 276 275 273 272